GSAT0217 (GALILEO 21) (43057 NORAD) Tracking and Keplerian Element Data

This shows tracking and keplerian element data for the satellite.

Feedback or suggestion? Click here.




ElementValue
Catalog43057
NameGSAT0217 (GALILEO 21)
Epoch Orbit789
Epoch Day80.03328748
Epoch Year2019
RAAN294.2442
Inclination56.6291
Eccentricity0.0001826
Argument of Perigee306.3645
Mean Anonmoly53.6582
Mean Motion1.70473754
Decay Rate-7E-08
L11 43057U 17079C 19080.03328748 -.00000007 00000-0 00000-0 0 9994
L22 43057 56.6291 294.2442 0001826 306.3645 53.6582 1.70473754 7892

Live tracking and technical data element details for GSAT0217 (GALILEO 21) (NORAD 43057). GSAT0217 (GALILEO 21) can be tracked NOW for your location showing map with azimuth and elevation plus other details from your city location.

Track the satellite on the map from your city or location and see movement details for azimuth, elevation, latitude, longitude, range, height, and movement on the map or in text.







IsCatalogInMostPopularTable: catalog: 43057, numindb: 213
Update: records affected: 1



GetName: 43057 GSAT0217 (GALILEO 21)

Hit Count: updated at: Sat, 23 Mar 2019 02:41:41 GMT